Date String (YYYY-MM-DD hh:mm:ss) UTC,Instrument flags,Ambient pressure (hPa),Sample flow (lpm),Bypass flow (lpm),Sample temperature (°C),Ambient temperature (°C),ASC tube jacket temperature (°C),LED temperature (°C),Box temperature (°C),Sample RH (%),Span deviation,Mass concentration (μg/m³),Mass concentration (μg/m³),Mass concentration (μg/m³)
DateTimeUTC,F1_M11,P_M11,Q1_M11,Q2_M11,T1_M11,T2_M11,T3_M11,T4_M11,T5_M11,U1_M11,ZSPAN_M11,X0_M11,X2_M11,X1_M11
2021-11-28 14:00:00,,0829.9,4.99,0.00,22.7,21.9,00.0,31.8,24.4,14.3,0000.0,0007.39,0002.22,0001.22
2021-11-28 14:01:00,,0829.9,5.01,0.00,22.7,21.9,00.0,31.8,24.4,14.3,0000.0,0007.20,0002.13,0001.20
2021-11-28 14:02:00,,0829.8,5.01,0.00,22.7,21.8,00.0,31.8,24.4,14.4,0000.0,0007.22,0002.13,0001.19
2021-11-28 14:03:00,,0829.8,5.00,0.00,22.7,21.8,00.0,31.7,24.5,14.4,0000.0,0007.32,0002.16,0001.21
2021-11-28 14:04:00,,0829.9,5.00,0.00,22.7,21.8,00.0,31.7,24.4,14.4,0000.0,0007.29,0002.17,0001.20
2021-11-28 14:05:00,,0829.9,4.99,0.00,22.7,21.8,00.0,31.7,24.4,14.4,0000.0,0007.41,0002.23,0001.21
2021-11-28 14:06:00,,0830.0,5.01,0.00,22.7,21.8,00.0,31.7,24.4,14.4,0000.0,0007.67,0002.25,0001.21
2021-11-28 14:07:00,,0830.0,5.00,0.00,22.7,21.8,00.0,31.7,24.4,14.4,0000.0,0007.28,0002.22,0001.21
2021-11-28 14:08:00,,0829.9,4.99,0.00,22.7,21.8,00.0,31.7,24.4,14.4,0000.0,0007.03,0002.22,0001.23
2021-11-28 14:09:00,,0829.8,5.01,0.00,22.7,21.8,00.0,31.7,24.4,14.4,0000.0,0005.12,0002.15,0001.24
2021-11-28 14:10:00,,0829.9,4.99,0.00,22.7,21.8,00.0,31.7,24.5,14.5,0000.0,0004.89,0002.09,0001.22
2021-11-28 14:11:00,,0829.9,5.01,0.00,22.7,21.8,00.0,31.7,24.4,14.4,0000.0,0004.85,0002.07,0001.22
2021-11-28 14:12:00,,0830.1,5.01,0.00,22.7,21.8,00.0,31.7,24.4,14.4,0000.0,0004.78,0002.09,0001.23
2021-11-28 14:13:00,,0830.1,5.00,0.00,22.7,21.8,00.0,31.7,24.5,14.4,0000.0,0004.84,0002.14,0001.25
2021-11-28 14:14:00,,0830.1,5.00,0.00,22.7,21.8,00.0,31.7,24.5,14.4,0000.0,0005.33,0002.12,0001.25
2021-11-28 14:15:00,,0830.1,5.00,0.00,22.7,21.8,00.0,31.7,24.5,14.4,0000.0,0005.50,0002.10,0001.25
2021-11-28 14:16:00,,0830.1,5.00,0.00,22.7,21.8,00.0,31.7,24.4,14.4,0000.0,0005.45,0002.11,0001.27
2021-11-28 14:17:00,,0830.1,5.00,0.00,22.7,21.8,00.0,31.7,24.4,14.5,0000.0,0005.09,0002.15,0001.28
2021-11-28 14:18:00,,0830.1,5.01,0.00,22.7,21.8,00.0,31.7,24.4,14.5,0000.0,0006.04,0002.15,0001.31
2021-11-28 14:19:00,,0830.1,4.98,0.00,22.7,21.8,00.0,31.7,24.4,14.4,0000.0,0006.21,0002.17,0001.31
2021-11-28 14:20:00,,0830.1,5.01,0.00,22.7,22.0,00.0,31.7,24.4,14.4,0000.0,0006.31,0002.19,0001.31
2021-11-28 14:21:00,,0830.3,4.99,0.00,22.8,22.6,00.0,31.7,24.7,14.4,0000.0,0006.70,0002.32,0001.34
2021-11-28 14:22:00,,0830.3,5.01,0.00,22.9,23.4,00.0,31.8,24.9,14.3,0000.0,0007.57,0002.43,0001.37
2021-11-28 14:23:00,,0830.2,4.99,0.00,23.0,23.4,00.0,31.8,25.0,14.3,0000.0,0007.75,0002.48,0001.38
2021-11-28 14:24:00,,0830.2,4.99,0.00,23.0,23.2,00.0,31.8,24.9,14.2,0000.0,0007.85,0002.42,0001.37
2021-11-28 14:25:00,,0830.1,5.01,0.00,23.0,23.0,00.0,31.8,24.9,14.2,0000.0,0007.97,0002.47,0001.38
2021-11-28 14:26:00,,0830.1,4.99,0.00,23.0,22.9,00.0,31.9,24.9,14.2,0000.0,0007.82,0002.51,0001.39
2021-11-28 14:27:00,,0830.1,5.01,0.00,23.0,22.7,00.0,31.9,24.9,14.2,0000.0,0007.81,0002.54,0001.39
2021-11-28 14:28:00,,0830.2,5.00,0.00,23.0,22.6,00.0,31.9,24.9,14.2,0000.0,0007.71,0002.52,0001.38
2021-11-28 14:29:00,,0830.3,5.02,0.00,23.0,22.6,00.0,31.9,24.9,14.2,0000.0,0007.37,0002.51,0001.35
2021-11-28 14:30:00,,0830.2,4.99,0.00,23.0,22.5,00.0,31.9,24.8,14.3,0000.0,0007.08,0002.48,0001.35
2021-11-28 14:31:00,,0830.2,5.01,0.00,23.0,22.4,00.0,31.9,24.8,14.3,0000.0,0007.19,0002.49,0001.36
2021-11-28 14:32:00,,0830.1,5.01,0.00,23.0,22.4,00.0,31.9,24.8,14.3,0000.0,0007.15,0002.48,0001.36
2021-11-28 14:33:00,,0830.1,5.01,0.00,23.0,22.4,00.0,31.9,24.8,14.3,0000.0,0006.44,0002.48,0001.36
2021-11-28 14:34:00,,0830.2,5.00,0.00,23.0,22.3,00.0,31.9,24.8,14.3,0000.0,0006.82,0002.44,0001.37
2021-11-28 14:35:00,,0830.2,4.99,0.00,23.0,22.3,00.0,31.9,24.8,14.3,0000.0,0006.76,0002.44,0001.38
2021-11-28 14:36:00,,0830.1,5.00,0.00,23.0,22.3,00.0,31.9,24.8,14.3,0000.0,0006.08,0002.41,0001.39
2021-11-28 14:37:00,,0830.1,5.00,0.00,23.0,22.3,00.0,31.9,24.8,14.3,0000.0,0006.19,0002.43,0001.40
2021-11-28 14:38:00,,0830.3,4.99,0.00,23.0,22.3,00.0,31.9,24.8,14.3,0000.0,0006.41,0002.41,0001.41
2021-11-28 14:39:00,,0830.3,5.00,0.00,23.0,22.2,00.0,31.9,24.8,14.3,0000.0,0006.36,0002.41,0001.43
2021-11-28 14:40:00,,0830.2,5.01,0.00,23.0,22.2,00.0,31.9,24.7,14.3,0000.0,0006.23,0002.45,0001.45
2021-11-28 14:41:00,,0830.1,4.99,0.00,23.0,22.2,00.0,31.9,24.8,14.4,0000.0,0007.19,0002.49,0001.46
2021-11-28 14:42:00,,0830.1,5.01,0.00,23.0,22.2,00.0,32.0,24.8,14.4,0000.0,0007.34,0002.49,0001.46
2021-11-28 14:43:00,,0830.1,4.99,0.00,23.0,22.2,00.0,32.0,24.8,14.4,0000.0,0007.19,0002.43,0001.45
2021-11-28 14:44:00,,0830.1,5.00,0.00,23.0,22.2,00.0,32.0,24.8,14.4,0000.0,0007.66,0002.37,0001.45
2021-11-28 14:45:00,,0830.2,5.01,0.00,23.0,22.2,00.0,32.0,24.8,14.4,0000.0,0007.82,0002.42,0001.46
2021-11-28 14:46:00,,0830.3,4.99,0.00,23.0,22.2,00.0,32.0,24.8,14.4,0000.0,0008.33,0002.43,0001.46
2021-11-28 14:47:00,,0830.3,5.01,0.00,23.0,22.2,00.0,32.0,24.7,14.4,0000.0,0008.86,0002.39,0001.47
2021-11-28 14:48:00,,0830.1,5.00,0.00,23.0,22.2,00.0,32.0,24.7,14.5,0000.0,0008.78,0002.35,0001.47
2021-11-28 14:49:00,,0830.1,4.99,0.00,23.0,22.2,00.0,32.0,24.7,14.6,0000.0,0008.73,0002.36,0001.47
2021-11-28 14:50:00,,0830.1,4.99,0.00,23.0,22.2,00.0,32.0,24.7,14.6,0000.0,0009.20,0002.38,0001.48
2021-11-28 14:51:00,,0830.2,5.01,0.00,23.0,22.2,00.0,32.0,24.8,14.6,0000.0,0009.50,0002.37,0001.48
2021-11-28 14:52:00,,0830.2,5.00,0.00,23.0,22.2,00.0,32.0,24.8,14.6,0000.0,0008.87,0002.33,0001.48
2021-11-28 14:53:00,,0830.1,5.00,0.00,23.0,22.2,00.0,32.0,24.8,14.6,0000.0,0008.68,0002.25,0001.47
2021-11-28 14:54:00,,0830.1,4.99,0.00,23.0,22.2,00.0,32.0,24.8,14.6,0000.0,0008.81,0002.25,0001.47
2021-11-28 14:55:00,,0830.1,5.00,0.00,23.0,22.2,00.0,32.0,24.8,14.7,0000.0,0008.29,0002.30,0001.50
2021-11-28 14:56:00,,0830.1,5.00,0.00,23.0,22.2,00.0,32.0,24.8,14.7,0000.0,0007.86,0002.29,0001.50
2021-11-28 14:57:00,,0830.1,4.99,0.00,23.0,22.3,00.0,32.0,24.8,14.8,0000.0,0007.32,0002.32,0001.50
2021-11-28 14:58:00,,0830.1,5.02,0.00,23.0,22.3,00.0,32.0,24.8,14.7,0000.0,0006.73,0002.36,0001.50
2021-11-28 14:59:00,,0830.1,4.99,0.00,23.1,22.3,00.0,32.0,24.9,14.7,0000.0,0006.99,0002.41,0001.52
